Content
SEND FEEDBACK

Daily
Averages
Monthly
Summary
Canada

QUEBEC CITY, QUEBEC


Home > North America > Canada > Quebec
Elevation: 239 feet     Latitude: 46 48N     Longitude: 071 23W

WEATHER
 
SELECT A DAY
Number of Records: 196,145;   Date Range: 6/30/96 - 10/30/14
 
SHARE

PRINT THIS DATA

[ ← Previous Day ]
WEATHER ALMANAC - AUGUST 25, 2013
[ Next Day → ]
[ °C ]   °F
Weather ElementAverageHighLow
Temperature63.2 °F75.2 °F (2:00 pm)47 °F (5:00 am)
Dewpoint50.9 °F60.8 °F (10:00 pm) (7:00 pm)
Humidity74.3 %100 % (5:00 am)39 % (2:00 pm)
Barometer28.40 in30.35 in (6:00 am) (7:00 pm)
Wind Speed4.8 mph13.8 mph (1:00 pm)
Weather ElementAverage
Visibility23 mi
Wind DirectionSSW (205 °)

Weather ElementTotal
Precipitation---
Heating Degree Days3.9 (Base 65)
Growing Degree Days11.1 (Base 50)
Averaged from 33 records on August 25, 2013
WEATHER CONDITIONS BREAKOUT
WIND DIRECTION BREAKOUT
WEATHER BY HOUR - AUGUST 25, 2013
[ °C ]   °F
Local TimeTemperatureDewpointHumidityBarometerVisibilityWind DirectionWind SpeedGust SpeedPrecipitationEventsConditions
1:00 AM55.4 °F51.8 °F88 %30.30 in15.0 miNE (40°)3.5 mphClear
2:00 AM52.0 °F51.0 °F95 %30.29 inWNW (300°)3.5 mph
2:00 AM53.6 °F51.8 °F94 %30.31 in15.0 miNNW (330°)3.5 mphClear
3:00 AM51.8 °F50.0 °F94 %30.30 in15.0 miCalmClear
4:00 AM51.8 °F50.0 °F94 %30.32 in15.0 miNNW (340°)2.3 mphClear
5:00 AM47.0 °F47.0 °F100 %30.32 inCalm
5:00 AM51.8 °F48.2 °F88 %30.33 in15.0 miCalmClear
6:00 AM48.2 °F46.4 °F93 %30.35 in20.0 miWNW (290°)2.3 mphFogPatches of Fog
7:00 AM51.8 °F50.0 °F94 %30.34 in30.0 miNW (320°)2.3 mphFogPatches of Fog
8:00 AM55.0 °F53.0 °F92 %30.33 inWSW (250°)2.3 mph
8:00 AM57.2 °F53.6 °F88 %30.35 in30.0 miWSW (250°)6.9 mphScattered Clouds
9:00 AM60.8 °F55.4 °F82 %30.34 in30.0 miSW (220°)8.1 mphMostly Cloudy
10:00 AM64.4 °F55.4 °F73 %30.32 in30.0 miSW (220°)9.2 mphMostly Cloudy
11:00 AM66.0 °F57.0 °F65 %30.28 inSW (230°)5.8 mph
11:00 AM68.0 °F59.0 °F73 %30.30 in30.0 miSW (230°)6.9 mphMostly Cloudy
12:00 PM69.8 °F57.2 °F64 %30.28 in30.0 miSW (220°)11.5 mphMostly Cloudy
1:00 PM73.4 °F51.8 °F47 %30.27 in30.0 miWSW (250°)13.8 mphMostly Cloudy
2:00 PM74.0 °F54.0 °F39 %30.22 inWSW (250°)8.1 mph
2:00 PM75.2 °F53.6 °F47 %30.24 in30.0 miWest (260°)13.8 mphMostly Cloudy
3:00 PM75.2 °F53.6 °F47 %30.21 in30.0 miSW (220°)8.1 mphMostly Cloudy
4:00 PM75.2 °F53.6 °F47 %30.19 in30.0 miWest (260°)10.4 mphMostly Cloudy
5:00 PM73.0 °F54.0 °F40 %30.15 inWest (270°)8.1 mph
5:00 PM73.4 °F53.6 °F50 %30.17 in30.0 miWest (270°)8.1 mphMostly Cloudy
6:00 PM71.6 °F57.2 °F60 %30.15 in30.0 miSW (230°)4.6 mphMostly Cloudy
7:00 PM69.8 °F57.2 °F64 %30.13 in30.0 miWSW (250°)4.6 mphOvercast
8:00 PM68.0 °F57.2 °F68 %30.12 in15.0 miCalmOvercast
8:00 PM64.0 °F59.0 °F80 %30.10 inWest (260°)2.3 mph
9:00 PM66.2 °F59.0 °F78 %30.10 in15.0 miSouth (180°)3.5 mphOvercast
10:00 PM66.2 °F60.8 °F83 %30.09 in15.0 miCalmRainLight Rain Showers
10:32 PM64.4 °F0.0 °F15.0 miCalmOvercast
11:00 PM62.0 °F60.0 °F93 %30.04 inWNW (290°)2.3 mph
11:00 PM64.4 °F59.0 °F83 %30.06 in15.0 miNNW (330°)2.3 mphOvercast
11:34 PM64.4 °F0.0 °F15.0 miCalmRainLight Rain Showers
Hourly data recorded from CYQB, located miles away from Quebec City, Quebec







STORIES FROM OUR PARTNERS